Z-SAT

operational
NORAD ID: 49399 Int'l Des: 2021-102 Owner: MHIME Country: J
LEOCIRCULARRETROGRADESSO

About Z-SAT

Description loading...

Live Position

Loading 3D Globe...

Upcoming Passes

Altitude History

Altitude vs Time

uPlot chart will show altitude changes over time

Two-Line Element Set

1 49399U 21102E 26062.65169433 .00006489 00000-0 32746-3 0 9995
2 49399 97.3466 101.1682 0015335 254.4042 105.5499 15.17348896237432
Epoch: Mar 3, 2026 • Age: 24 hours

Current Status

Altitude 519.8 km
Velocity 7.60 km/s
Sub-Earth Point 28.82°N, 120.5°E
Launch Date Nov 9, 2021
Age 4.3 years
Type other

Technical Details

Classification Payload
Mass 46.00 kg
Dry Mass 46.00 kg
Total Mass 46.00 kg
Length 0.50 m
Diameter 0.50 m
Span 0.51 m
Shape Box
Manufacturer MHIME
Bus Type Z-SAT
Phase Status In Orbit
Owner/State MHIME/J

Large Constellations

Loading constellations...